Regional Weather Roundup
Issued by NWS

Home | Current Version | Previous Version | Text Only | Print | Product List | Glossary On
Versions: 1 2 3 4 5 6 7 8 9 10 11 12 13 14 15 16 17 18 19 20 21 22 23 24 25 26 27 28 29 30 31 32 33 34 35 36 37 38 39 40 41 42 43 44 45 46 47 48 49 50
000
ASUS43 KLOT 251407
RWRIL

ILLINOIS REGIONAL WEATHER ROUNDUP
NATIONAL WEATHER SERVICE CHICAGO/ROMEOVILLE IL
900 AM CDT SAT MAR 25 2017

NOTE: "FAIR" INDICATES FEW OR NO CLOUDS BELOW 12,000 FEET WITH NO
SIGNIFICANT WEATHER AND/OR OBSTRUCTIONS TO VISIBILITY.

* THESE STATIONS ARE NOT UNDER NWS QUALITY CONTROL. THEY ALSO MAY NOT
  REPORT WEATHER SUCH AS PRECIPITATION OR FOG.

ILZ001-002-007-009-015-016-024-251500-
NORTHWEST ILLINOIS

CITY           SKY/WX    TMP DP  RH WIND       PRES   REMARKS
MOLINE         LGT RAIN  43  40  89 NE16      29.91S FOG
STERLING*      LGT RAIN  41  40  96 NE17G23   29.96F FOG
SAVANNA*       RAIN      40  38  94 NE15G21   29.99S
$$

ILZ003-004-008-010-011-017-018-251500-
NORTH CENTRAL ILLINOIS

CITY           SKY/WX    TMP DP  RH WIND       PRES   REMARKS
ROCKFORD       LGT RAIN  41  38  89 NE16      30.04F
FREEPORT*      CLOUDY    38  37  97 NE21      30.04F FOG     WCI  28
ROCHELLE*      LGT RAIN  40  39  97 NE21G26   30.00R
DE KALB*       LGT RAIN  40  39  97 NE17      30.02R
PERU*          DRIZZLE   42  41  96 E23       29.93F
$$

ILZ005-006-012>014-019>023-251500-
NORTHEAST ILLINOIS

CITY           SKY/WX    TMP DP  RH WIND       PRES   REMARKS
CHICAGO-OHARE  LGT RAIN  42  39  89 NE13      30.06R FOG
CHICAGO-MIDWAY LGT RAIN  42  41  96 NE10G21   30.05R FOG
AURORA         LGT RAIN  43  40  89 NE20G28   30.01S FOG
LANSING*       LGT RAIN  41  41 100 N5        30.03F
JOLIET*        LGT RAIN  44  43  97 NE14      29.99F
WAUKEGAN       CLOUDY    39  38  96 NE20G25   30.07R WCI  29
DUPAGE AIRPORT LGT RAIN  41  41 100 NE14      30.04R FOG
KANKAKEE*      LGT RAIN  46  46  98 NE10      29.97F
WHEELING       CLOUDY    40  40 100 NE14G24   30.07F
MORRIS*        RAIN      43  42  96 NE8       29.97F
ROMEOVILLE*    LGT RAIN  42  42 100 NE20      29.99F
NORTHERLY ISL    N/A     39  38  96 N12         N/A  WCI  32
$$

LMZ740>746-251500-
SOUTHERN LAKE MICHIGAN

STATION/POSITION SKY/WX   TEMP    WIND        PRES    VSBY  WAVE
                          AIR SEA DIR/SP/G                  HT/PER
                          (F)     (DEG/KT/KT) (MB)    (MI)  (FT/S)
HARRISON CRIB                      20/ 13/ 15   N/A
BURNHAM HARBOR                    360/ 11/ 16   N/A
CALUMET HARBOR                    360/  9/ 12 1016.8R
BURNS HARBOR               40      50/  7/  8 1017.6F
MICHIGAN CITY              39      40/  6/  6   N/A
$$

ILZ025>027-034>036-040-047-049-050-058-095>099-251500-
WEST-CENTRAL ILLINOIS

CITY           SKY/WX    TMP DP  RH WIND       PRES   REMARKS
QUINCY         CLOUDY    57  56  96 S6        29.84R
GALESBURG*     RAIN      46  46 100 SE3       29.88R
MACOMB*        LGT RAIN  48  48 100 NE8       29.88R
JACKSONVILLE*  CLOUDY    59  55  89 S12       29.86R
PITTSFIELD*    CLOUDY    58  56  93 S9        29.86R
$$

ILZ028>032-037-038-041>044-048-051>054-059>061-251500-
CENTRAL ILLINOIS

CITY           SKY/WX    TMP DP  RH WIND       PRES   REMARKS
PONTIAC        CLOUDY    47  46  98 E13G18    29.95R FOG
BLOOMINGTON    CLOUDY    50  49  96 E14       29.93R FOG
DECATUR        CLOUDY    62  54  74 S12       29.92R
PEORIA         LGT RAIN  48  47  96 E16       29.89R FOG
LACON*         LGT RAIN  45  45 100 NE12G17   29.91R
LINCOLN*       MOSUNNY   62  58  88 S12       29.89R
SPRINGFIELD    CLOUDY    61  56  83 S15       29.88S
TAYLORVILLE    MOSUNNY   59  54  82 S18       29.90R
$$

ILZ033-039-045-046-055>057-062-063-251500-
EAST-CENTRAL ILLINOIS

CITY           SKY/WX    TMP DP  RH WIND       PRES   REMARKS
CHAMPAIGN      CLOUDY    63  54  72 S16       29.93R
RANTOUL*       LGT RAIN  63  58  83 SE13      29.94R
MATTOON        CLOUDY    63  55  75 S14       29.93R
PARIS*         CLOUDY    64  55  70 S21       29.97R
$$

ILZ079-100>102-251500-
SOUTHWEST ILLINOIS

CITY           SKY/WX    TMP DP  RH WIND       PRES   REMARKS
ALTON          CLOUDY    57  54  88 S12       29.88R
BELLEVILLE     SUNNY     57  57  99 SE16      29.88R
CAHOKIA*       PTSUNNY   58  53  84 SE16      29.86S
SPARTA*        CLOUDY    56  53  89 SE10      29.91R
$$

ILZ064>066-069>071-074>076-080>082-084>086-088>090-092>094-251500-
SOUTH-CENTRAL ILLINOIS

CITY           SKY/WX    TMP DP  RH WIND       PRES   REMARKS
CARBONDALE     CLOUDY    57  55  93 SE13G21   29.92F
CAIRO*         CLOUDY    57  56  96 E9        29.92F
EFFINGHAM*     CLOUDY    61  55  82 SE14      29.96S
MARION         PTSUNNY   59  57  94 SE12G17   29.95S
MT. VERNON     CLOUDY    60  53  77 SE10      29.94F
CENTRALIA*     DRIZZLE   58  55  87 SE21G26   29.92S
SALEM*         CLOUDY    60  52  75 SE10      29.93S
METROPOLIS*    CLOUDY    57  56  96 SE9       29.94F
$$

ILZ067-068-072-073-078-083-087-091-251500-
SOUTHEAST ILLINOIS

CITY           SKY/WX    TMP DP  RH WIND       PRES   REMARKS
LAWRENCEVILLE  CLOUDY    64  53  67 S18       29.99R
FLORA*         DRIZZLE   61  54  78 S17       29.96S
FAIRFIELD*     CLOUDY    60  54  80 S6        29.95F
HARRISBURG*    CLOUDY    58  56  91 SE10      29.96F
ROBINSON*      CLOUDY    64  53  67 S18G24    29.98R
CARMI*         LGT RAIN  58  55  89 S12       29.98F
$$

ABBREVIATIONS USED IN REMARKS
   TC - TEMPERATURE IN CELSIUS
  WCI - WIND CHILL INDEX
   HX - HEAT INDEX
  VSB - VISIBILITY
$$




USA.gov is the U.S. government's official web portal to all federal, state and local government web resources and services.